FW9036 Weather Reports


time (UTC)temp
C
wind
direction
speed
KPH
gust
KPH
rain 1hr
cm
rain 24hr
cm
rain mn
cm
humidity
%
barometer
mb
20260901125125 27 129 0.0 3.2 0.00 0.00 0.00 92 1016.4
20260901124620 26 318 0.0 4.8 0.00 0.00 0.00 92 1016.6
20260901124114 26 250 0.0 4.8 0.00 0.00 0.00 92 1016.4
20260901123615 26 270 0.0 0.0 0.00 0.00 0.00 93 1016.6
20260901123114 26 32 0.0 4.8 0.00 0.00 0.00 93 1016.3
20260901122612 26 30 3.2 3.2 0.00 0.00 0.00 93 1016.4
20260901122107 26 284 3.2 4.8 0.00 0.00 0.00 93 1016.2
20260901121602 26 215 1.6 3.2 0.00 0.00 0.00 94 1016.2
20260901121057 26 18 1.6 4.8 0.00 0.00 0.00 94 1016.0
20260901120556 26 265 0.0 0.0 0.00 0.00 0.00 94 1016.0
20260901120052 26 341 0.0 1.6 0.00 0.00 0.00 94 1016.2
20260901115547 26 123 0.0 1.6 0.00 0.00 0.00 95 1016.2
20260901115044 25 187 0.0 1.6 0.00 0.00 0.00 95 1016.2
20260901114540 25 275 0.0 3.2 0.00 0.00 0.00 95 1015.8
20260901114039 25 285 1.6 1.6 0.00 0.00 0.00 95 1015.9
20260901113538 25 219 1.6 3.2 0.00 0.00 0.00 95 1016.1
20260901113033 25 31 0.0 1.6 0.00 0.00 0.00 96 1015.9
20260901112527 25 84 0.0 1.6 0.00 0.00 0.00 96 1015.9
20260901112023 25 87 0.0 1.6 0.00 0.00 0.00 96 1015.8
20260901111521 25 140 0.0 1.6 0.00 0.00 0.00 96 1015.6
20260901111020 25 97 0.0 0.0 0.00 0.00 0.00 96 1015.5
20260901110516 25 109 0.0 0.0 0.00 0.00 0.00 96 1015.4
20260901110011 25 237 0.0 1.6 0.00 0.00 0.00 96 1015.6
20260901105507 25 207 0.0 1.6 0.00 0.00 0.00 96 1015.5
20260901105007 25 235 0.0 1.6 0.00 0.00 0.00 96 1015.6
20260901104503 25 31 0.0 1.6 0.00 0.00 0.00 96 1015.5
20260901103957 25 41 0.0 1.6 0.00 0.00 0.00 96 1015.4
20260901103453 25 45 0.0 1.6 0.00 0.00 0.00 96 1015.5
20260901102948 25 108 0.0 3.2 0.00 0.00 0.00 96 1015.2
20260901102448 25 296 0.0 1.6 0.00 0.00 0.00 96 1015.4
20260901101942 25 98 0.0 0.0 0.00 0.00 0.00 96 1015.3
20260901101438 25 88 0.0 1.6 0.00 0.00 0.00 96 1015.6
20260901100932 25 359 3.2 3.2 0.00 0.00 0.00 96 1015.2
20260901100427 25 183 0.0 1.6 0.00 0.00 0.00 96 1015.2
20260901095926 25 43 0.0 0.0 0.00 0.00 0.00 96 1015.4
20260901095425 25 302 0.0 1.6 0.00 0.00 0.00 96 1015.3
20260901094917 25 70 0.0 0.0 0.00 0.00 0.00 96 1015.3
20260901094418 25 190 0.0 1.6 0.00 0.00 0.00 96 1015.0
20260901093912 25 17 0.0 1.6 0.00 0.00 0.00 96 1015.1
20260901093411 25 325 0.0 0.0 0.00 0.00 0.00 96 1015.2
20260901092907 25 14 1.6 1.6 0.00 0.00 0.00 96 1015.1
20260901092403 25 134 0.0 0.0 0.00 0.00 0.00 96 1015.4
20260901091859 25 236 0.0 0.0 0.00 0.00 0.00 96 1015.3
20260901091358 25 163 0.0 1.6 0.00 0.00 0.00 96 1015.2
20260901090847 25 13 0.0 1.6 0.00 0.00 0.00 96 1015.1
20260901090342 25 36 0.0 0.0 0.00 0.00 0.00 96 1014.9
20260901085838 25 198 0.0 0.0 0.00 0.00 0.00 96 1014.9
20260901085333 25 85 0.0 1.6 0.00 0.00 0.00 96 1014.8
20260901084830 25 186 0.0 0.0 0.00 0.00 0.00 96 1014.9
20260901084326 25 25 0.0 0.0 0.00 0.00 0.00 96 1014.8
20260901083821 25 25 0.0 3.2 0.00 0.00 0.00 96 1015.1
20260901083321 25 10 0.0 1.6 0.00 0.00 0.00 96 1015.2
20260901082819 25 18 0.0 0.0 0.00 0.00 0.00 96 1014.8
20260901082315 25 25 0.0 0.0 0.00 0.00 0.00 96 1014.8
20260901081810 25 144 0.0 0.0 0.00 0.00 0.00 96 1015.1
20260901081309 25 144 0.0 0.0 0.00 0.00 0.00 96 1014.9
20260901080805 25 144 0.0 0.0 0.00 0.00 0.00 96 1015.1
20260901080304 25 144 0.0 0.0 0.00 0.00 0.00 96 1015.0
20260901075758 25 144 0.0 0.0 0.00 0.00 0.00 96 1014.9
20260901075254 25 308 0.0 0.0 0.00 0.00 0.00 96 1014.9
20260901074748 25 134 0.0 0.0 0.00 0.00 0.00 96 1015.0
20260901074243 25 134 0.0 0.0 0.00 0.00 0.00 96 1015.0
20260901073739 25 134 0.0 0.0 0.00 0.00 0.00 96 1015.2
20260901073234 25 134 0.0 0.0 0.00 0.00 0.00 96 1015.1
20260901072729 25 134 0.0 0.0 0.00 0.00 0.00 95 1015.3
20260901072224 25 134 0.0 0.0 0.00 0.00 0.00 95 1015.2
20260901071719 25 134 0.0 0.0 0.00 0.00 0.00 95 1015.5
20260901071219 25 134 0.0 0.0 0.00 0.00 0.00 95 1015.3
20260901070712 25 134 0.0 0.0 0.00 0.00 0.00 95 1015.6
20260901070208 25 134 0.0 0.0 0.00 0.00 0.00 95 1015.5
20260901065707 25 176 0.0 0.0 0.00 0.00 0.00 94 1015.6
20260901065202 25 176 0.0 0.0 0.00 0.00 0.00 94 1015.4
20260901064659 25 176 0.0 0.0 0.00 0.00 0.00 94 1015.5
20260901064155 25 31 0.0 0.0 0.00 0.00 0.00 94 1015.7
20260901063652 25 31 0.0 0.0 0.00 0.00 0.00 94 1015.7
20260901063147 25 31 0.0 1.6 0.00 0.00 0.00 94 1015.9
20260901062643 25 25 0.0 0.0 0.00 0.00 0.00 94 1015.9
20260901062139 25 123 0.0 0.0 0.00 0.00 0.00 94 1015.9
20260901061635 25 123 0.0 0.0 0.00 0.00 0.00 94 1015.9
20260901061134 25 123 0.0 0.0 0.00 0.00 0.00 94 1016.0
20260901060629 25 123 0.0 0.0 0.00 0.00 0.00 93 1016.0
20260901060125 25 123 0.0 0.0 0.00 0.00 0.00 94 1016.0
20260901055620 25 123 0.0 0.0 0.00 0.00 0.00 93 1016.1
20260901055116 25 123 0.0 0.0 0.00 0.00 0.00 93 1016.1
20260901054613 25 123 0.0 0.0 0.00 0.00 0.00 93 1016.0
20260901054109 25 123 0.0 0.0 0.00 0.00 0.00 93 1016.1
20260901053605 25 123 0.0 0.0 0.00 0.00 0.00 93 1016.2
20260901053100 25 123 0.0 0.0 0.00 0.00 0.00 93 1016.3
20260901052600 25 123 0.0 0.0 0.00 0.00 0.00 93 1016.2
20260901052055 26 198 0.0 0.0 0.00 0.00 0.00 93 1016.2
20260901051550 26 134 0.0 0.0 0.00 0.00 0.00 93 1016.4
20260901051049 26 134 0.0 0.0 0.00 0.00 0.00 92 1016.3
20260901050544 26 134 0.0 0.0 0.00 0.00 0.00 92 1016.4
20260901050039 26 134 0.0 0.0 0.00 0.00 0.00 92 1016.3
20260901045534 26 134 0.0 0.0 0.00 0.00 0.00 92 1016.3
20260901045029 26 31 0.0 0.0 0.00 0.00 0.00 92 1016.2
20260901044525 26 19 0.0 0.0 0.00 0.00 0.00 92 1016.5
20260901044021 26 199 0.0 0.0 0.00 0.00 0.00 92 1016.3
20260901043516 26 199 0.0 0.0 0.00 0.00 0.00 91 1016.6
20260901043011 26 199 0.0 0.0 0.00 0.00 0.00 91 1016.6
20260901042511 26 199 0.0 0.0 0.00 0.00 0.00 90 1016.5
20260901042006 26 167 1.6 1.6 0.00 0.00 0.00 90 1016.5
20260901041501 26 198 0.0 0.0 0.00 0.00 0.00 90 1016.6
20260901040955 26 13 0.0 1.6 0.00 0.00 0.00 90 1016.4
20260901040450 26 357 0.0 3.2 0.00 0.00 0.00 90 1016.3
20260901035949 26 150 0.0 1.6 0.00 0.00 0.00 90 1016.5
20260901035448 26 50 0.0 0.0 0.00 0.00 0.00 90 1016.6
20260901034947 26 0 0.0 3.2 0.00 0.00 0.00 90 1016.8
20260901034447 26 223 0.0 1.6 0.00 0.00 0.00 89 1016.6
20260901033942 26 250 0.0 0.0 0.00 0.00 0.00 89 1016.6
20260901033441 26 80 0.0 1.6 0.00 0.00 0.00 89 1016.7
20260901032939 26 166 0.0 0.0 0.00 0.00 0.00 89 1016.8
20260901032439 26 268 1.6 3.2 0.00 0.00 0.00 89 1016.8
20260901031934 26 25 0.0 1.6 0.00 0.00 0.00 89 1016.8
20260901031431 26 98 0.0 0.0 0.00 0.00 0.00 89 1016.8
20260901030930 26 31 0.0 0.0 0.00 0.00 0.00 89 1017.0
20260901030426 26 250 0.0 3.2 0.00 0.00 0.00 88 1016.9
20260901025924 26 231 1.6 1.6 0.00 0.00 0.00 88 1016.8
20260901025420 26 149 0.0 0.0 0.00 0.00 0.00 88 1016.9
20260901024914 26 110 0.0 0.0 0.00 0.00 0.00 89 1017.0
20260901024413 26 149 0.0 0.0 0.00 0.00 0.00 88 1017.0
20260901023912 26 250 0.0 0.0 0.00 0.00 0.00 88 1016.8
20260901023407 26 44 0.0 0.0 0.00 0.00 0.00 88 1016.8
20260901022903 26 211 0.0 1.6 0.00 0.00 0.00 88 1016.9
20260901022358 27 223 0.0 0.0 0.00 0.00 0.00 87 1016.8
20260901021853 27 266 0.0 0.0 0.00 0.00 0.00 87 1016.8
20260901021348 27 70 0.0 1.6 0.00 0.00 0.00 87 1016.9
20260901020843 27 325 0.0 0.0 0.00 0.00 0.00 87 1016.8
20260901020339 27 198 0.0 3.2 0.00 0.00 0.00 87 1016.8
20260901015838 27 18 0.0 0.0 0.00 0.00 0.00 87 1016.8
20260901015335 27 223 0.0 0.0 0.00 0.00 0.00 87 1016.5
20260901014834 27 308 0.0 0.0 0.00 0.00 0.00 87 1016.6
20260901014330 27 205 0.0 0.0 0.00 0.00 0.00 87 1016.5
20260901013825 27 223 0.0 3.2 0.00 0.00 0.00 86 1016.4
20260901013321 27 356 0.0 0.0 0.00 0.00 0.00 86 1016.3
20260901012816 27 183 0.0 1.6 0.00 0.00 0.00 86 1016.2
20260901012311 27 127 0.0 3.2 0.00 0.00 0.00 86 1016.0
20260901011807 27 210 0.0 1.6 0.00 0.00 0.00 85 1016.0
20260901011302 27 31 0.0 1.6 0.00 0.00 0.00 85 1015.7
20260901010755 27 30 1.6 1.6 0.00 0.00 0.00 85 1015.8
20260901010250 27 250 0.0 3.2 0.00 0.00 0.00 85 1015.7
20260901005749 27 218 0.0 1.6 0.00 0.00 0.00 84 1015.8
20260901005245 27 146 0.0 3.2 0.00 0.00 0.00 83 1015.9
20260901004744 27 41 3.2 3.2 0.00 0.00 0.00 82 1015.8
20260901004239 27 57 0.0 3.2 0.00 0.00 0.00 83 1015.9
20260901003733 27 87 0.0 1.6 0.00 0.00 0.00 83 1015.7
20260901003228 27 178 1.6 3.2 0.00 0.00 0.00 83 1015.7
20260901002726 27 56 0.0 1.6 0.00 0.00 0.00 82 1015.9
20260901002222 27 98 0.0 1.6 0.00 0.00 0.00 82 1015.9
20260901001717 27 21 3.2 4.8 0.00 0.00 0.00 81 1015.7
20260901001212 28 181 0.0 3.2 0.00 0.00 0.00 81 1015.8
20260901000708 28 4 0.0 3.2 0.00 0.00 0.00 80 1015.8
20260901000204 28 73 1.6 3.2 0.00 0.00 0.00 80 1016.0
20260831235702 28 309 0.0 1.6 0.00 0.00 0.00 79 1015.6
20260831235158 28 193 0.0 4.8 0.00 0.00 0.00 79 1015.7
20260831234657 28 180 0.0 3.2 0.00 0.00 0.00 78 1015.8
20260831234152 28 122 0.0 3.2 0.00 0.00 0.00 77 1015.7
20260831233648 28 151 0.0 4.8 0.00 0.00 0.00 76 1015.9
20260831233143 28 100 0.0 3.2 0.00 0.00 0.00 75 1015.9
20260831232638 29 137 0.0 3.2 0.00 0.00 0.00 75 1015.8
20260831232134 29 131 3.2 4.8 0.00 0.00 0.00 73 1015.8
20260831231629 30 127 0.0 4.8 0.00 0.00 0.00 70 1015.8
20260831231125 31 53 1.6 4.8 0.00 0.00 0.00 68 1015.8
20260831230616 31 218 0.0 3.2 0.00 0.00 0.00 66 1016.0
20260831230115 31 184 3.2 3.2 0.00 0.00 0.00 65 1016.0
20260831225610 31 166 0.0 3.2 0.00 0.00 0.00 65 1015.9
20260831225105 31 151 3.2 3.2 0.00 0.00 0.00 65 1015.8
20260831224600 31 35 0.0 4.8 0.00 0.00 0.00 66 1015.7
20260831224055 31 131 4.8 6.4 0.00 0.00 0.00 66 1015.9
20260831223551 31 135 4.8 4.8 0.00 0.00 0.00 64 1015.7
20260831223047 31 138 0.0 3.2 0.00 0.00 0.00 65 1016.0
20260831222543 31 123 0.0 6.4 0.00 0.00 0.00 62 1015.5
20260831222042 32 97 0.0 3.2 0.00 0.00 0.00 61 1015.6
20260831221538 32 199 3.2 4.8 0.00 0.00 0.00 60 1015.4
20260831221033 32 102 1.6 3.2 0.00 0.00 0.00 60 1015.4
20260831220528 32 145 3.2 4.8 0.00 0.00 0.00 61 1015.4
20260831220024 32 199 0.0 4.8 0.00 0.00 0.00 61 1015.3
20260831215519 32 105 3.2 4.8 0.00 0.00 0.00 60 1015.5
20260831215015 32 99 1.6 4.8 0.00 0.00 0.00 63 1015.3
20260831214512 31 103 0.0 4.8 0.00 0.00 0.00 63 1015.4
20260831214008 31 151 0.0 6.4 0.00 0.00 0.00 64 1015.4
20260831213504 32 89 3.2 4.8 0.00 0.00 0.00 63 1015.4
20260831212959 32 91 0.0 8.0 0.00 0.00 0.00 62 1015.4
20260831212455 33 76 3.2 4.8 0.00 0.00 0.00 59 1015.3
20260831211954 33 87 1.6 3.2 0.00 0.00 0.00 59 1015.3
20260831211450 33 123 3.2 8.0 0.00 0.00 0.00 59 1015.3
20260831210949 32 146 1.6 4.8 0.00 0.00 0.00 60 1015.4
20260831210444 32 120 3.2 6.4 0.00 0.00 0.00 62 1015.4
20260831205940 32 144 3.2 4.8 0.00 0.00 0.00 60 1015.5
20260831205436 32 147 6.4 6.4 0.00 0.00 0.00 60 1015.1
20260831204931 32 157 6.4 6.4 0.00 0.00 0.00 60 1015.4
20260831204430 32 134 1.6 8.0 0.00 0.00 0.00 58 1015.5
20260831203930 32 86 1.6 11.3 0.00 0.00 0.00 57 1015.3
20260831203424 32 38 3.2 4.8 0.00 0.00 0.00 57 1015.7
20260831202922 32 172 0.0 4.8 0.00 0.00 0.00 61 1015.3
20260831202418 32 109 3.2 4.8 0.00 0.00 0.00 62 1015.3
20260831201912 32 88 1.6 4.8 0.00 0.00 0.00 61 1015.2
20260831201410 31 81 4.8 8.0 0.00 0.00 0.00 62 1015.2
20260831200907 32 30 3.2 6.4 0.00 0.00 0.00 60 1015.5
20260831200402 32 63 4.8 8.0 0.00 0.00 0.00 60 1015.6
20260831195856 32 56 3.2 8.0 0.00 0.00 0.00 59 1015.6
20260831195352 32 21 6.4 8.0 0.00 0.00 0.00 58 1015.3
20260831194847 32 35 6.4 6.4 0.00 0.00 0.00 59 1015.6
20260831194343 32 102 3.2 4.8 0.00 0.00 0.00 59 1015.7
20260831193842 32 149 0.0 6.4 0.00 0.00 0.00 58 1015.7
20260831193337 32 53 0.0 6.4 0.00 0.00 0.00 59 1015.6
20260831192832 31 166 3.2 11.3 0.00 0.00 0.00 62 1015.7
20260831192332 32 88 3.2 8.0 0.00 0.00 0.00 61 1015.7
20260831191828 32 106 1.6 6.4 0.00 0.00 0.00 61 1015.8
20260831191324 32 114 0.0 4.8 0.00 0.00 0.00 61 1015.7
20260831190819 32 139 4.8 6.4 0.00 0.00 0.00 63 1015.9
20260831190314 32 172 4.8 6.4 0.00 0.00 0.00 63 1016.2
20260831185813 32 82 1.6 4.8 0.00 0.00 0.00 60 1016.1
20260831185309 32 121 0.0 6.4 0.00 0.00 0.00 60 1016.1
20260831184808 32 116 3.2 6.4 0.00 0.00 0.00 60 1016.2
20260831184304 32 78 6.4 8.0 0.00 0.00 0.00 60 1016.4
20260831183759 32 112 4.8 4.8 0.00 0.00 0.00 63 1016.2
20260831183258 32 65 1.6 6.4 0.00 0.00 0.00 62 1016.4
20260831182757 32 44 3.2 8.0 0.00 0.00 0.00 62 1016.6
20260831182252 32 172 0.0 9.7 0.00 0.00 0.00 63 1016.4
20260831181748 32 134 6.4 6.4 0.00 0.00 0.00 64 1016.4
20260831181243 32 22 4.8 8.0 0.00 0.00 0.00 60 1016.3
20260831180743 31 102 4.8 6.4 0.00 0.00 0.00 64 1016.5
20260831180238 31 69 3.2 8.0 0.00 0.00 0.00 65 1016.6
20260831175737 31 90 0.0 8.0 0.00 0.00 0.00 67 1016.4
20260831175234 31 358 4.8 9.7 0.00 0.00 0.00 66 1016.6
20260831174729 31 7 4.8 6.4 0.00 0.00 0.00 65 1016.7
20260831174224 31 143 3.2 6.4 0.00 0.00 0.00 68 1016.6
20260831173723 31 74 1.6 6.4 0.00 0.00 0.00 66 1017.0
20260831173218 31 175 3.2 8.0 0.00 0.00 0.00 67 1017.2
20260831172713 32 178 8.0 8.0 0.00 0.00 0.00 67 1017.0
20260831172208 31 113 4.8 8.0 0.00 0.00 0.00 68 1017.1
20260831171702 31 149 4.8 8.0 0.00 0.00 0.00 68 1017.1
20260831171200 31 136 1.6 8.0 0.00 0.00 0.00 67 1017.1
20260831170656 31 142 0.0 4.8 0.00 0.00 0.00 66 1017.2
20260831170153 32 280 1.6 4.8 0.00 0.00 0.00 66 1017.1
20260831165649 31 165 1.6 4.8 0.00 0.00 0.00 68 1017.2
20260831165145 31 63 3.2 6.4 0.00 0.00 0.00 67 1017.3
20260831164640 31 68 0.0 6.4 0.00 0.00 0.00 70 1017.2
20260831164136 30 61 0.0 9.7 0.00 0.00 0.00 70 1017.4
20260831163631 30 57 1.6 6.4 0.00 0.00 0.00 71 1017.5
20260831163127 30 18 4.8 6.4 0.00 0.00 0.00 72 1017.3
20260831162626 30 39 4.8 9.7 0.00 0.00 0.00 72 1017.7
20260831162124 30 46 0.0 6.4 0.00 0.00 0.00 71 1017.5
20260831161620 30 52 0.0 6.4 0.00 0.00 0.00 72 1017.7
20260831161116 30 165 1.6 4.8 0.00 0.00 0.00 74 1017.8
20260831160615 30 23 3.2 6.4 0.00 0.00 0.00 73 1017.6
20260831160111 30 150 1.6 9.7 0.00 0.00 0.00 72 1017.6
20260831155605 31 96 1.6 6.4 0.00 0.00 0.00 69 1017.5
20260831155101 31 45 1.6 6.4 0.00 0.00 0.00 67 1017.8
20260831154556 31 134 3.2 3.2 0.00 0.00 0.00 69 1017.8
20260831154056 31 160 8.0 9.7 0.00 0.00 0.00 69 1017.7
20260831153555 31 100 4.8 6.4 0.00 0.00 0.00 68 1017.8
20260831153053 30 44 0.0 8.0 0.00 0.00 0.00 70 1017.8
20260831152547 30 39 4.8 6.4 0.00 0.00 0.00 71 1017.7
20260831152043 30 359 4.8 8.0 0.00 0.00 0.00 71 1017.7
20260831151542 30 207 1.6 4.8 0.00 0.00 0.00 73 1017.7
20260831151037 30 77 3.2 6.4 0.00 0.00 0.00 75 1017.9
20260831150532 29 233 0.0 4.8 0.00 0.00 0.00 75 1017.6
20260831150028 29 31 0.0 3.2 0.00 0.00 0.00 76 1017.5
20260831145522 29 37 0.0 1.6 0.00 0.00 0.00 77 1017.7
20260831145019 29 210 3.2 4.8 0.00 0.00 0.00 76 1017.7
20260831144514 30 266 0.0 3.2 0.00 0.00 0.00 74 1017.8
20260831144009 30 292 11.3 11.3 0.00 0.00 0.00 75 1017.5
20260831143504 30 335 1.6 3.2 0.00 0.00 0.00 75 1017.6
20260831142959 30 142 0.0 6.4 0.00 0.00 0.00 76 1017.3
20260831142456 29 296 0.0 4.8 0.00 0.00 0.00 76 1017.4
20260831141950 29 268 3.2 3.2 0.00 0.00 0.00 77 1017.4
20260831141449 28 113 0.0 3.2 0.00 0.00 0.00 78 1017.1
20260831140944 28 289 4.8 4.8 0.00 0.00 0.00 79 1017.0
20260831140439 28 186 0.0 4.8 0.00 0.00 0.00 79 1017.0
20260831135938 28 58 1.6 1.6 0.00 0.00 0.00 80 1016.8
20260831135437 28 226 3.2 8.0 0.00 0.00 0.00 80 1016.9
20260831134932 28 48 0.0 3.2 0.00 0.00 0.00 80 1016.9
20260831134429 27 296 8.0 8.0 0.00 0.00 0.00 80 1016.9
20260831133928 27 283 1.6 6.4 0.00 0.00 0.00 81 1016.9
20260831133428 27 331 3.2 6.4 0.00 0.00 0.00 81 1016.6
20260831132923 27 300 3.2 4.8 0.00 0.00 0.00 82 1016.5
20260831132419 27 256 3.2 4.8 0.00 0.00 0.00 85 1016.7
20260831131918 27 42 3.2 4.8 0.00 0.00 0.00 84 1016.8
20260831131414 27 29 3.2 3.2 0.00 0.00 0.00 85 1016.9
20260831130909 27 107 1.6 3.2 0.00 0.00 0.00 86 1017.0
20260831130405 26 275 0.0 3.2 0.00 0.00 0.00 85 1016.9
20260831125904 26 134 1.6 4.8 0.00 0.00 0.00 86 1016.8